« Back
NWS Peachtree City, Ga » Text Product » ATL Terminal Aerodrome Forecast


Printer-friendly Version
Current Version              Previous Versions:   1  2  3  4  5  6  7  8  9  

Terminal Aerodrome Forecast

068
FTUS42 KFFC 151900 AAA
TAFATL
TAF AMD
KATL 151953Z 1520/1624 16003KT P6SM BKN025
     FM152200 VRB03KT P6SM VCSH BKN035
      TEMPO 1523/1603 4SM -TSRA BKN025CB
     FM160600 25005KT 5SM BR VCSH BKN025
     FM161200 32007KT 6SM BR BKN015
     FM161500 33008KT P6SM SCT025 BKN040
     FM161800 33011KT P6SM SCT050 BKN100=

USA.gov is the U.S. government's official web portal to all federal, state and local government web resources and services.